AUA27 EDDF-EDDW

Flight info

Callsign AUA27
Flight time 0h 37m
Altitude 22000
Route MARUN8M/25C MARUN Y153 WRB N850 NIE Z88 VERED VERED3P
Aircraft A20N/M-SDE2E3FGHIRWXY/LB1

Departure

Time 2026-05-05 10:21
Airport Frankfurt Main Airport (EDDF)

Arrival

Time 2026-05-05 10:58
Airport Bremen Airport (EDDW)
Time Latitude Longitude Altitude Speed Heading
2026-05-05 10:00 50.03784 8.54497 342 ft 0 kts 159°
2026-05-05 10:10 50.03782 8.54498 343 ft 2 kts 160°
2026-05-05 10:10 50.03755 8.54518 352 ft 6 kts 157°
2026-05-05 10:10 50.03727 8.54575 348 ft 8 kts 92°
2026-05-05 10:11 50.03742 8.54670 352 ft 10 kts 70°
2026-05-05 10:11 50.03770 8.54770 347 ft 11 kts 78°
2026-05-05 10:11 50.03795 8.54892 352 ft 13 kts 69°
2026-05-05 10:11 50.03830 8.55034 351 ft 15 kts 70°
2026-05-05 10:12 50.03864 8.55166 347 ft 13 kts 73°
2026-05-05 10:12 50.03897 8.55309 350 ft 15 kts 69°
2026-05-05 10:12 50.03928 8.55474 349 ft 17 kts 73°
2026-05-05 10:12 50.03955 8.55575 352 ft 3 kts 62°
2026-05-05 10:13 50.03968 8.55618 349 ft 6 kts 65°
2026-05-05 10:13 50.03989 8.55699 345 ft 10 kts 70°
2026-05-05 10:13 50.04017 8.55820 348 ft 13 kts 70°
2026-05-05 10:13 50.04051 8.55967 345 ft 15 kts 69°
2026-05-05 10:14 50.04091 8.56131 347 ft 17 kts 69°
2026-05-05 10:14 50.04135 8.56313 347 ft 19 kts 70°
2026-05-05 10:14 50.04178 8.56496 350 ft 18 kts 63°
2026-05-05 10:14 50.04223 8.56681 346 ft 18 kts 70°
2026-05-05 10:15 50.04269 8.56866 347 ft 19 kts 72°
2026-05-05 10:15 50.04313 8.57060 352 ft 20 kts 70°
2026-05-05 10:15 50.04363 8.57270 350 ft 21 kts 69°
2026-05-05 10:15 50.04413 8.57479 347 ft 20 kts 69°
2026-05-05 10:16 50.04459 8.57673 350 ft 18 kts 70°
2026-05-05 10:16 50.04489 8.57799 348 ft 19 kts 71°
2026-05-05 10:16 50.04537 8.58029 348 ft 21 kts 71°
2026-05-05 10:16 50.04576 8.58197 353 ft 14 kts 69°
2026-05-05 10:17 50.04617 8.58339 350 ft 15 kts 68°
2026-05-05 10:17 50.04653 8.58490 350 ft 14 kts 77°
2026-05-05 10:17 50.04621 8.58571 344 ft 8 kts 159°
2026-05-05 10:17 50.04602 8.58582 345 ft 3 kts 159°
2026-05-05 10:18 50.04598 8.58585 352 ft 0 kts 159°
2026-05-05 10:18 50.04530 8.58617 348 ft 13 kts 179°
2026-05-05 10:18 50.04481 8.58562 350 ft 0 kts 244°
2026-05-05 10:20 50.04481 8.58561 350 ft 1 kts 244°
2026-05-05 10:21 50.04411 8.58268 354 ft 71 kts 250°
2026-05-05 10:21 50.04148 8.57148 350 ft 145 kts 249°
2026-05-05 10:21 50.03730 8.55446 669 ft 176 kts 249°
2026-05-05 10:21 50.03296 8.53684 1681 ft 173 kts 249°
2026-05-05 10:22 50.02878 8.51923 2573 ft 179 kts 250°
2026-05-05 10:22 50.02376 8.50073 3120 ft 195 kts 236°
2026-05-05 10:22 50.01328 8.48665 3691 ft 206 kts 202°
2026-05-05 10:22 49.99940 8.48165 4526 ft 205 kts 190°
2026-05-05 10:23 49.98525 8.47771 5279 ft 208 kts 190°
2026-05-05 10:23 49.97099 8.47377 6088 ft 208 kts 190°
2026-05-05 10:23 49.95686 8.46918 6632 ft 214 kts 196°
2026-05-05 10:23 49.94192 8.46217 6941 ft 238 kts 197°
2026-05-05 10:24 49.92613 8.45226 7607 ft 250 kts 214°
2026-05-05 10:24 49.91444 8.43234 8516 ft 255 kts 242°
2026-05-05 10:24 49.91007 8.40552 9370 ft 263 kts 270°
2026-05-05 10:24 49.91317 8.37705 10096 ft 277 kts 288°
2026-05-05 10:25 49.92367 8.35072 10455 ft 302 kts 314°
2026-05-05 10:25 49.94164 8.33203 10746 ft 327 kts 337°
2026-05-05 10:25 49.95628 8.32431 10933 ft 343 kts 343°
2026-05-05 10:25 49.97969 8.31443 11553 ft 352 kts 343°
2026-05-05 10:26 50.00320 8.30337 12335 ft 355 kts 340°
2026-05-05 10:26 50.02676 8.29106 12713 ft 359 kts 343°
2026-05-05 10:26 50.05157 8.28600 12837 ft 362 kts
2026-05-05 10:26 50.07641 8.29250 12871 ft 364 kts 18°
2026-05-05 10:27 50.10819 8.30917 12869 ft 364 kts 18°
2026-05-05 10:27 50.12431 8.31768 12875 ft 364 kts 18°
2026-05-05 10:27 50.14832 8.33034 12873 ft 365 kts 18°
2026-05-05 10:27 50.17250 8.34305 13164 ft 369 kts 18°
2026-05-05 10:28 50.19659 8.35569 13957 ft 371 kts 18°
2026-05-05 10:28 50.22120 8.36861 14647 ft 376 kts 18°
2026-05-05 10:28 50.24617 8.38172 15334 ft 381 kts 18°
2026-05-05 10:28 50.27151 8.39504 16002 ft 386 kts 18°
2026-05-05 10:29 50.29710 8.40851 16639 ft 392 kts 18°
2026-05-05 10:29 50.32306 8.42246 17283 ft 396 kts 19°
2026-05-05 10:29 50.34922 8.43675 17929 ft 400 kts 18°
2026-05-05 10:29 50.37555 8.45121 18581 ft 402 kts 18°
2026-05-05 10:30 50.40207 8.46573 19178 ft 405 kts 18°
2026-05-05 10:30 50.42844 8.48016 19762 ft 408 kts 18°
2026-05-05 10:30 50.45530 8.49486 20361 ft 411 kts 18°
2026-05-05 10:30 50.48240 8.50965 20943 ft 414 kts 18°
2026-05-05 10:31 50.50992 8.52336 21513 ft 417 kts 16°
2026-05-05 10:31 50.53784 8.53642 21787 ft 419 kts 15°
2026-05-05 10:31 50.56583 8.54937 21867 ft 419 kts 15°
2026-05-05 10:31 50.59376 8.56239 21859 ft 418 kts 15°
2026-05-05 10:32 50.62159 8.57552 21858 ft 418 kts 15°
2026-05-05 10:32 50.64944 8.58879 21859 ft 418 kts 15°
2026-05-05 10:32 50.67729 8.60216 21860 ft 418 kts 15°
2026-05-05 10:32 50.70473 8.61539 21859 ft 418 kts 15°
2026-05-05 10:33 50.73255 8.62883 21860 ft 418 kts 15°
2026-05-05 10:33 50.76040 8.64230 21861 ft 418 kts 15°
2026-05-05 10:33 50.78820 8.65576 21862 ft 418 kts 15°
2026-05-05 10:33 50.83413 8.67982 21864 ft 419 kts 21°
2026-05-05 10:34 50.94248 8.74854 21861 ft 419 kts 21°
2026-05-05 10:34 51.05050 8.81722 21862 ft 417 kts 21°
2026-05-05 10:34 51.15833 8.88617 21862 ft 417 kts 21°
2026-05-05 10:34 51.26456 8.95442 21861 ft 415 kts 21°
2026-05-05 10:35 51.37178 9.02375 21863 ft 416 kts 21°
2026-05-05 10:35 51.47905 9.09349 21866 ft 416 kts 20°
2026-05-05 10:35 51.59152 9.12907 21867 ft 413 kts
2026-05-05 10:35 51.70522 9.15391 21870 ft 414 kts
2026-05-05 10:36 51.81940 9.17865 21870 ft 414 kts
2026-05-05 10:36 51.93376 9.20492 21748 ft 415 kts
2026-05-05 10:36 52.01669 9.22721 20740 ft 408 kts
2026-05-05 10:36 52.06542 9.23994 19811 ft 402 kts
2026-05-05 10:37 52.12041 9.25002 18748 ft 395 kts
2026-05-05 10:37 52.17473 9.25910 17642 ft 388 kts
2026-05-05 10:37 52.22779 9.26855 16590 ft 379 kts
2026-05-05 10:37 52.25643 9.27439 16025 ft 375 kts
2026-05-05 10:38 52.28211 9.28113 15513 ft 372 kts
2026-05-05 10:38 52.30757 9.28662 15064 ft 365 kts 358°
2026-05-05 10:38 52.33236 9.27967 14813 ft 363 kts 337°
2026-05-05 10:38 52.35405 9.25919 14569 ft 359 kts 316°
2026-05-05 10:39 52.37160 9.23120 14338 ft 356 kts 311°
2026-05-05 10:39 52.38867 9.20200 14098 ft 355 kts 311°
2026-05-05 10:39 52.40587 9.17315 13866 ft 354 kts 312°
2026-05-05 10:39 52.42330 9.14482 13626 ft 352 kts 313°
2026-05-05 10:40 52.44080 9.11703 13359 ft 349 kts 314°
2026-05-05 10:40 52.45829 9.08955 13026 ft 346 kts 314°
2026-05-05 10:40 52.47533 9.06291 12640 ft 340 kts 314°
2026-05-05 10:40 52.49230 9.03637 12250 ft 334 kts 314°
2026-05-05 10:41 52.50899 9.01023 11865 ft 329 kts 314°
2026-05-05 10:41 52.52538 8.98450 11481 ft 324 kts 314°
2026-05-05 10:41 52.54152 8.95913 11115 ft 319 kts 314°
2026-05-05 10:41 52.55749 8.93403 10678 ft 317 kts 314°
2026-05-05 10:42 52.58904 8.88430 9806 ft 312 kts 314°
2026-05-05 10:42 52.60464 8.85968 9334 ft 310 kts 314°
2026-05-05 10:42 52.61983 8.83568 8853 ft 302 kts 314°
2026-05-05 10:43 52.63477 8.81210 8395 ft 293 kts 314°
2026-05-05 10:43 52.64929 8.78914 7931 ft 285 kts 314°
2026-05-05 10:43 52.66340 8.76677 7483 ft 278 kts 314°
2026-05-05 10:43 52.67719 8.74493 7040 ft 272 kts 314°
2026-05-05 10:44 52.69068 8.72354 6586 ft 266 kts 313°
2026-05-05 10:44 52.70388 8.70255 6151 ft 261 kts 313°
2026-05-05 10:44 52.71664 8.68219 5695 ft 257 kts 314°
2026-05-05 10:44 52.72939 8.66184 5242 ft 253 kts 315°
2026-05-05 10:45 52.74199 8.64172 4788 ft 251 kts 315°
2026-05-05 10:45 52.75450 8.62174 4332 ft 250 kts 315°
2026-05-05 10:45 52.76681 8.60208 4061 ft 240 kts 315°
2026-05-05 10:45 52.77853 8.58337 3989 ft 229 kts 316°
2026-05-05 10:46 52.79014 8.56478 3994 ft 234 kts 316°
2026-05-05 10:46 52.80177 8.54619 3993 ft 231 kts 316°
2026-05-05 10:46 52.81337 8.52762 3996 ft 232 kts 316°
2026-05-05 10:46 52.82481 8.50931 3992 ft 232 kts 316°
2026-05-05 10:47 52.83641 8.49073 3990 ft 232 kts 316°
2026-05-05 10:47 52.84799 8.47213 3993 ft 231 kts 316°
2026-05-05 10:47 52.85957 8.45353 3992 ft 232 kts 316°
2026-05-05 10:47 52.87103 8.43511 3988 ft 224 kts 316°
2026-05-05 10:48 52.88175 8.41785 3903 ft 212 kts 316°
2026-05-05 10:48 52.89206 8.40125 3766 ft 202 kts 316°
2026-05-05 10:48 52.90197 8.38530 3668 ft 197 kts 316°
2026-05-05 10:48 52.91186 8.36937 3613 ft 200 kts 316°
2026-05-05 10:49 52.92166 8.35356 3488 ft 198 kts 316°
2026-05-05 10:49 52.93155 8.33760 3359 ft 198 kts 316°
2026-05-05 10:49 52.94141 8.32163 3243 ft 198 kts 316°
2026-05-05 10:49 52.95212 8.30760 3112 ft 195 kts 336°
2026-05-05 10:50 52.96487 8.30374 3005 ft 180 kts 359°
2026-05-05 10:50 52.97703 8.30316 2990 ft 172 kts 359°
2026-05-05 10:50 52.98903 8.30240 2989 ft 173 kts 358°
2026-05-05 10:50 53.00110 8.30155 2986 ft 173 kts 358°
2026-05-05 10:51 53.01299 8.30067 2986 ft 173 kts 358°
2026-05-05 10:51 53.02472 8.30201 2982 ft 171 kts 23°
2026-05-05 10:51 53.03350 8.31481 2995 ft 172 kts 59°
2026-05-05 10:51 53.03711 8.33370 2997 ft 175 kts 81°
2026-05-05 10:52 53.03796 8.35384 2989 ft 174 kts 88°
2026-05-05 10:52 53.03817 8.37400 2992 ft 175 kts 87°
2026-05-05 10:52 53.03859 8.39409 2990 ft 174 kts 86°
2026-05-05 10:52 53.03901 8.41411 2992 ft 173 kts 86°
2026-05-05 10:53 53.03944 8.43419 2994 ft 175 kts 86°
2026-05-05 10:53 53.03987 8.45434 2997 ft 175 kts 87°
2026-05-05 10:53 53.04028 8.47431 2996 ft 174 kts 86°
2026-05-05 10:53 53.04071 8.49438 2999 ft 174 kts 86°
2026-05-05 10:54 53.04110 8.51332 2994 ft 153 kts 86°
2026-05-05 10:54 53.04147 8.53086 2999 ft 153 kts 86°
2026-05-05 10:54 53.04183 8.54787 2864 ft 140 kts 86°
2026-05-05 10:54 53.04216 8.56367 2692 ft 134 kts 85°
2026-05-05 10:55 53.04248 8.57896 2521 ft 132 kts 85°
2026-05-05 10:55 53.04281 8.59429 2347 ft 132 kts 84°
2026-05-05 10:55 53.04313 8.60930 2171 ft 133 kts 85°
2026-05-05 10:55 53.04344 8.62450 1989 ft 131 kts 85°
2026-05-05 10:56 53.04377 8.63969 1815 ft 131 kts 85°
2026-05-05 10:56 53.04408 8.65475 1633 ft 130 kts 84°
2026-05-05 10:56 53.04435 8.66985 1401 ft 130 kts 84°
2026-05-05 10:56 53.04460 8.68492 1139 ft 131 kts 85°
2026-05-05 10:57 53.04488 8.69985 862 ft 130 kts 83°
2026-05-05 10:57 53.04518 8.71497 627 ft 131 kts 85°
2026-05-05 10:57 53.04553 8.72993 476 ft 130 kts 84°
2026-05-05 10:57 53.04591 8.74465 259 ft 128 kts 86°
2026-05-05 10:58 53.04622 8.75941 128 ft 128 kts 83°
2026-05-05 10:58 53.04657 8.77425 33 ft 128 kts 84°
2026-05-05 10:58 53.04686 8.78677 20 ft 72 kts 89°
2026-05-05 10:58 53.04697 8.79026 20 ft 0 kts 86°
2026-05-05 10:59 53.04697 8.79074 20 ft 9 kts 89°
2026-05-05 10:59 53.04704 8.79216 21 ft 15 kts 71°
2026-05-05 10:59 53.04786 8.79293 19 ft 15 kts 354°
2026-05-05 10:59 53.04861 8.79228 19 ft 11 kts 278°
2026-05-05 11:00 53.04860 8.79081 18 ft 14 kts 267°
2026-05-05 11:00 53.04866 8.78910 20 ft 16 kts 301°
2026-05-05 11:00 53.04949 8.78778 18 ft 17 kts 316°
2026-05-05 11:00 53.05016 8.78611 18 ft 17 kts 299°
2026-05-05 11:01 53.05098 8.78481 18 ft 10 kts 318°
2026-05-05 11:01 53.05148 8.78487 20 ft 9 kts 46°
2026-05-05 11:01 53.05171 8.78528 18 ft 0 kts 48°